Date String (YYYY-MM-DD hh:mm:ss) UTC,Instrument flags,Ambient pressure (hPa),Sample flow (lpm),Bypass flow (lpm),Sample temperature (°C),Ambient temperature (°C),ASC tube jacket temperature (°C),LED temperature (°C),Box temperature (°C),Sample RH (%),Span deviation,Mass concentration (μg/m³),Mass concentration (μg/m³),Mass concentration (μg/m³)
DateTimeUTC,F1_M11,P_M11,Q1_M11,Q2_M11,T1_M11,T2_M11,T3_M11,T4_M11,T5_M11,U1_M11,ZSPAN_M11,X2_M11,X0_M11,X1_M11
2022-04-20 10:00:00,,0816.0,4.99,0.00,28.5,27.7,00.0,37.5,30.3,10.2,0000.0,0009.35,0033.10,0003.73
2022-04-20 10:01:00,,0816.0,5.01,0.00,28.5,27.7,00.0,37.5,30.3,10.2,0000.0,0009.44,0033.71,0003.73
2022-04-20 10:02:00,,0816.0,4.99,0.00,28.5,27.6,00.0,37.5,30.2,10.2,0000.0,0009.50,0032.76,0003.73
2022-04-20 10:03:00,,0815.9,5.01,0.00,28.5,27.5,00.0,37.5,30.2,10.3,0000.0,0009.60,0032.23,0003.72
2022-04-20 10:04:00,,0815.8,4.99,0.00,28.4,27.3,00.0,37.5,30.1,10.4,0000.0,0009.66,0032.41,0003.71
2022-04-20 10:05:00,,0815.7,4.99,0.00,28.4,27.3,00.0,37.4,30.1,10.5,0000.0,0009.66,0033.25,0003.72
2022-04-20 10:06:00,,0815.7,5.02,0.00,28.4,27.3,00.0,37.4,30.1,10.6,0000.0,0009.67,0034.80,0003.71
2022-04-20 10:07:00,,0815.8,4.98,0.00,28.4,27.3,00.0,37.4,30.1,10.6,0000.0,0009.69,0035.21,0003.71
2022-04-20 10:08:00,,0815.8,5.01,0.00,28.4,27.4,00.0,37.4,30.1,10.5,0000.0,0009.71,0034.88,0003.71
2022-04-20 10:09:00,,0815.9,4.99,0.00,28.3,27.4,00.0,37.4,30.0,10.5,0000.0,0009.70,0033.25,0003.68
2022-04-20 10:10:00,,0816.2,5.00,0.00,28.3,27.4,00.0,37.4,30.0,10.5,0000.0,0009.68,0033.08,0003.66
2022-04-20 10:11:00,,0816.5,5.02,0.00,28.3,27.3,00.0,37.4,30.0,10.6,0000.0,0009.79,0033.44,0003.63
2022-04-20 10:12:00,,0816.3,4.99,0.00,28.3,27.3,00.0,37.4,30.0,10.6,0000.0,0009.74,0033.41,0003.62
2022-04-20 10:13:00,,0816.1,5.00,0.00,28.3,27.3,00.0,37.3,30.0,10.6,0000.0,0009.69,0034.28,0003.62
2022-04-20 10:14:00,,0816.2,5.01,0.00,28.3,27.3,00.0,37.3,30.0,10.6,0000.0,0009.62,0034.08,0003.61
2022-04-20 10:15:00,,0816.2,4.99,0.00,28.3,27.4,00.0,37.3,30.1,10.6,0000.0,0009.65,0033.37,0003.60
2022-04-20 10:16:00,,0816.1,5.00,0.00,28.3,27.4,00.0,37.3,30.1,10.6,0000.0,0009.63,0032.43,0003.62
2022-04-20 10:17:00,,0816.1,5.01,0.00,28.3,27.5,00.0,37.3,30.1,10.5,0000.0,0009.70,0031.24,0003.63
2022-04-20 10:18:00,,0816.1,5.00,0.00,28.3,27.5,00.0,37.3,30.1,10.5,0000.0,0009.74,0031.59,0003.63
2022-04-20 10:19:00,,0816.3,4.99,0.00,28.3,27.6,00.0,37.3,30.1,10.5,0000.0,0009.67,0032.19,0003.64
2022-04-20 10:20:00,,0816.3,5.00,0.00,28.3,27.5,00.0,37.3,30.1,10.5,0000.0,0009.67,0032.78,0003.64
2022-04-20 10:21:00,,0816.0,5.01,0.00,28.3,27.5,00.0,37.3,30.1,10.4,0000.0,0009.76,0033.71,0003.64
2022-04-20 10:22:00,,0816.0,5.00,0.00,28.3,27.4,00.0,37.3,30.0,10.4,0000.0,0009.69,0033.53,0003.64
2022-04-20 10:23:00,,0816.2,5.00,0.00,28.3,27.3,00.0,37.3,30.0,10.4,0000.0,0009.62,0032.73,0003.65
2022-04-20 10:24:00,,0816.2,5.01,0.00,28.3,27.3,00.0,37.3,30.0,10.5,0000.0,0009.53,0032.27,0003.64
2022-04-20 10:25:00,,0816.3,4.99,0.00,28.3,27.3,00.0,37.3,30.0,10.6,0000.0,0009.55,0032.24,0003.64
2022-04-20 10:26:00,,0816.3,5.00,0.00,28.3,27.3,00.0,37.3,30.0,10.6,0000.0,0009.52,0032.70,0003.66
2022-04-20 10:27:00,,0816.2,5.01,0.00,28.2,27.3,00.0,37.3,29.9,10.7,0000.0,0009.60,0032.55,0003.64
2022-04-20 10:28:00,,0816.2,4.98,0.00,28.2,27.3,00.0,37.3,29.9,10.6,0000.0,0009.60,0032.38,0003.63
2022-04-20 10:29:00,,0816.2,5.01,0.00,28.2,27.3,00.0,37.3,29.9,10.6,0000.0,0009.56,0031.68,0003.63
2022-04-20 10:30:00,,0816.2,5.00,0.00,28.2,27.3,00.0,37.2,29.9,10.6,0000.0,0009.60,0031.34,0003.62
2022-04-20 10:31:00,,0816.2,4.99,0.00,28.2,27.4,00.0,37.2,30.0,10.6,0000.0,0009.58,0031.41,0003.60
2022-04-20 10:32:00,,0816.2,4.99,0.00,28.2,27.4,00.0,37.2,30.0,10.7,0000.0,0009.54,0031.13,0003.61
2022-04-20 10:33:00,,0816.1,5.00,0.00,28.2,27.4,00.0,37.2,30.0,10.7,0000.0,0009.55,0030.78,0003.63
2022-04-20 10:34:00,,0816.3,5.02,0.00,28.2,27.4,00.0,37.2,30.0,10.7,0000.0,0009.59,0031.00,0003.65
2022-04-20 10:35:00,,0816.1,4.99,0.00,28.2,27.4,00.0,37.2,30.0,10.6,0000.0,0009.66,0031.40,0003.66
2022-04-20 10:36:00,,0816.3,4.99,0.00,28.3,27.4,00.0,37.2,30.1,10.6,0000.0,0009.77,0032.58,0003.68
2022-04-20 10:37:00,,0816.4,4.99,0.00,28.3,27.5,00.0,37.2,30.1,10.6,0000.0,0009.76,0033.69,0003.68
2022-04-20 10:38:00,,0816.4,4.99,0.00,28.3,27.5,00.0,37.2,30.1,10.6,-000.4,0009.72,0033.76,0003.68
2022-04-20 10:39:00,,0816.4,5.00,0.00,28.3,27.5,00.0,37.2,30.1,10.7,-000.1,0009.59,0033.55,0003.67
2022-04-20 10:40:00,,0816.3,5.02,0.00,28.3,27.5,00.0,37.2,30.1,10.7,0000.0,0009.67,0034.47,0003.67
2022-04-20 10:41:00,,0816.2,4.99,0.00,28.3,27.5,00.0,37.2,30.1,10.7,0000.0,0009.67,0034.32,0003.68
2022-04-20 10:42:00,,0816.1,4.99,0.00,28.3,27.5,00.0,37.2,30.1,10.7,0000.0,0009.68,0033.75,0003.71
2022-04-20 10:43:00,,0816.1,5.01,0.00,28.3,27.5,00.0,37.2,30.1,10.7,0000.0,0009.64,0032.84,0003.71
2022-04-20 10:44:00,,0816.1,5.01,0.00,28.3,27.5,00.0,37.2,30.2,10.7,0000.0,0009.63,0032.98,0003.71
2022-04-20 10:45:00,,0816.2,5.00,0.00,28.4,27.6,00.0,37.2,30.2,10.6,0000.0,0009.54,0032.17,0003.68
2022-04-20 10:46:00,,0816.3,4.99,0.00,28.4,27.6,00.0,37.3,30.2,10.6,0000.0,0009.49,0031.22,0003.69
2022-04-20 10:47:00,,0816.3,4.99,0.00,28.4,27.6,00.0,37.3,30.2,10.6,0000.0,0009.37,0030.90,0003.68
2022-04-20 10:48:00,,0816.3,5.01,0.00,28.4,27.6,00.0,37.3,30.2,10.6,0000.0,0009.35,0031.55,0003.67
2022-04-20 10:49:00,,0816.3,5.00,0.00,28.4,27.6,00.0,37.3,30.2,10.6,0000.0,0009.32,0031.90,0003.69
2022-04-20 10:50:00,,0816.3,5.00,0.00,28.4,27.6,00.0,37.3,30.2,10.6,0000.0,0009.37,0032.16,0003.70
2022-04-20 10:51:00,,0816.4,5.00,0.00,28.4,27.6,00.0,37.3,30.2,10.6,0000.0,0009.27,0032.54,0003.72
2022-04-20 10:52:00,,0816.4,5.02,0.00,28.4,27.6,00.0,37.3,30.2,10.6,0000.0,0009.26,0033.42,0003.73
2022-04-20 10:53:00,,0816.4,4.99,0.00,28.4,27.6,00.0,37.3,30.2,10.6,0000.0,0009.32,0035.13,0003.72
2022-04-20 10:54:00,,0816.4,4.99,0.00,28.4,27.6,00.0,37.3,30.2,10.6,0000.0,0009.40,0035.40,0003.74
2022-04-20 10:55:00,,0816.4,5.00,0.00,28.4,27.6,00.0,37.3,30.3,10.6,0000.0,0009.37,0035.33,0003.74
2022-04-20 10:56:00,,0816.4,5.01,0.00,28.5,27.6,00.0,37.3,30.3,10.6,0000.0,0009.44,0036.59,0003.73
2022-04-20 10:57:00,,0816.4,5.00,0.00,28.5,27.6,00.0,37.3,30.2,10.6,0000.0,0009.57,0037.90,0003.72
2022-04-20 10:58:00,,0816.4,4.99,0.00,28.5,27.6,00.0,37.3,30.2,10.6,0002.6,0009.66,0038.82,0003.71
2022-04-20 10:59:00,,0816.4,5.00,0.00,28.5,27.6,00.0,37.4,30.2,10.6,0002.6,0009.62,0036.71,0003.71
